Location: Keewatin
(47.4004°N, 93.0827°W)
Time: 15:28:30
(UTC+00:00)

ZACube-1 - Pass Details

Date: 29 February 2020
Orbit: 584 x 667 km, 97.6° (Epoch: 31 March)

Event Time Altitude Azimuth Distance (km) Brightness Sun altitude
Rises 11:48:07 0° 18° (NNE) 3,018 ? -11.8°
Reaches altitude 10° 11:50:29 10° 26° (NNE) 2,095 ? -11.4°
Maximum altitude 11:54:50 42° 97° (E) 940 ? -10.7°
Drops below altitude 10° 11:59:05 10° 169° (S) 2,047 ? -10.0°
Sets 12:01:22 0° 176° (S) 2,940 ? -9.6°
